{"data":{"norad_id":49071,"epoch":"2026-09-20T14:12:31.219200Z","epoch_age_seconds":93461,"freshness":"FRESH","line1":"1 49071U 21074A   26263.59202800  .00000935  00000+0  51092-4 0  9997","line2":"2 49071  97.4863 265.5861 0001824 105.2753 254.8682 15.16736873281734","mean_motion":15.16736873,"eccentricity":0.0001824,"inclination_deg":97.4863,"raan_deg":265.5861,"arg_perigee_deg":105.2753,"mean_anomaly_deg":254.8682,"bstar":5.1092e-5,"rev_number":28173,"period_min":94.94066015233,"perigee_km":514.45315698349,"apogee_km":516.96803258606,"semimajor_km":6893.8475947848,"source":"CELESTRAK","updated_at":"2026-09-21T09:00:07.946292Z"}}